SAS4642 LEBB-ENGM

Flight info

Callsign SAS4642
Flight time N/A
Altitude 37000
Route BISKA5A BISKA P87 BELEN DCT DIDIG DCT USODA DCT ERCUT DCT DITAL UN873 BAZOS DCT BELDI DCT VICOT DCT AMADA DCT PIPEX DCT ULMUG DCT RIPAM RIPAM3L
Aircraft A320/M-SDE3FGHIRWY/LB1

Departure

Time 2025-12-31 06:58
Airport Bilbao Airport (LEBB)

Arrival

Time N/A
Airport Oslo-Gardermoen International Airport (ENGM)
Time Latitude Longitude Altitude Speed Heading
2025-12-31 06:32 43.30386 -2.90514 133 ft 0 kts 27°
2025-12-31 06:49 43.30375 -2.90521 132 ft 2 kts 30°
2025-12-31 06:49 43.30361 -2.90533 132 ft 2 kts 33°
2025-12-31 06:50 43.30328 -2.90582 132 ft 2 kts 90°
2025-12-31 06:51 43.30334 -2.90603 132 ft 0 kts 144°
2025-12-31 06:52 43.30330 -2.90599 132 ft 2 kts 143°
2025-12-31 06:53 43.30280 -2.90551 132 ft 7 kts 148°
2025-12-31 06:53 43.30231 -2.90523 132 ft 9 kts 184°
2025-12-31 06:53 43.30105 -2.90538 132 ft 12 kts 117°
2025-12-31 06:54 43.29956 -2.90131 132 ft 20 kts 116°
2025-12-31 06:55 43.29826 -2.89778 132 ft 18 kts 117°
2025-12-31 06:55 43.29717 -2.89502 132 ft 10 kts 146°
2025-12-31 06:56 43.29634 -2.89633 132 ft 11 kts 232°
2025-12-31 06:56 43.29652 -2.89812 132 ft 9 kts 296°
2025-12-31 06:56 43.29770 -2.90133 133 ft 79 kts 297°
2025-12-31 06:57 43.30642 -2.92555 730 ft 167 kts 297°
2025-12-31 06:57 43.31736 -2.95436 2481 ft 169 kts 298°
2025-12-31 06:58 43.34216 -2.99524 3822 ft 207 kts 318°
2025-12-31 06:59 43.36598 -3.02461 4602 ft 251 kts 318°
2025-12-31 06:59 43.39211 -3.05797 6117 ft 264 kts 324°
2025-12-31 07:00 43.42662 -3.06640 7498 ft 265 kts 20°
2025-12-31 07:00 43.44235 -3.05316 8140 ft 267 kts 49°
2025-12-31 07:00 43.45982 -3.00798 9674 ft 273 kts 70°
2025-12-31 07:01 43.46947 -2.95672 10926 ft 286 kts 82°
2025-12-31 07:01 43.47224 -2.89897 11610 ft 316 kts 77°
2025-12-31 07:02 43.49707 -2.84929 12866 ft 328 kts 37°
2025-12-31 07:02 43.54042 -2.83036 14141 ft 342 kts
2025-12-31 07:03 43.61298 -2.82675 15808 ft 353 kts
2025-12-31 07:04 43.66205 -2.82011 16906 ft 357 kts 14°
2025-12-31 07:04 43.68643 -2.81298 17455 ft 360 kts 14°
2025-12-31 07:04 43.73607 -2.79738 18471 ft 369 kts 15°
2025-12-31 07:05 43.78649 -2.78060 19496 ft 375 kts 15°
2025-12-31 07:05 43.83754 -2.76365 20553 ft 380 kts 15°
2025-12-31 07:06 43.91528 -2.73825 22065 ft 388 kts 14°
2025-12-31 07:07 43.96883 -2.72466 23046 ft 394 kts 11°
2025-12-31 07:07 44.02352 -2.71369 23963 ft 400 kts 10°
2025-12-31 07:07 44.05113 -2.70812 24350 ft 402 kts 11°
2025-12-31 07:08 44.16302 -2.68370 25846 ft 411 kts 11°
2025-12-31 07:11 44.42259 -2.62565 28887 ft 429 kts 11°
2025-12-31 07:12 44.63132 -2.57878 31206 ft 436 kts 11°
2025-12-31 07:15 44.88855 -2.52051 34387 ft 429 kts 11°
2025-12-31 07:16 45.09414 -2.47350 36221 ft 426 kts 10°
2025-12-31 07:18 45.32861 -2.41954 37307 ft 430 kts
2025-12-31 07:20 45.56374 -2.36491 37326 ft 427 kts
2025-12-31 07:22 45.79755 -2.31012 37347 ft 425 kts
2025-12-31 07:24 46.02998 -2.25428 37358 ft 421 kts 15°
2025-12-31 07:26 46.23006 -2.08155 37366 ft 420 kts 32°
2025-12-31 07:28 46.42445 -1.89615 37368 ft 419 kts 32°
2025-12-31 07:30 46.61928 -1.70871 37387 ft 420 kts 32°
2025-12-31 07:32 46.81288 -1.52077 37397 ft 417 kts 32°